Location: Maiden
(35.5760°N, 81.2120°W)
Time: 01:21:13
(UTC-04:00)

USA 234 - Pass Details

Date: 14 June 2018
Orbit: 1102 x 1105 km, 123.0° (Epoch: 03 July)

Event Time Altitude Azimuth Distance (km) Brightness Sun altitude
Rises 23:02:55 0° 55° (NE) 3,924 6.2 -22.2°
Reaches altitude 10° 23:05:47 10° 65° (ENE) 2,963 5.4 -22.5°
Enters shadow 23:09:24 25° 95° (E) 2,039 4.3 -22.9°
